DL4PY-13 Weather Reports


time (UTC)temp
C
wind
direction
speed
KPH
gust
KPH
rain 1hr
cm
rain 24hr
cm
rain mn
cm
humidity
%
barometer
mb
20260502151858 25 203 11.3 29.0 0.00 0.00 0.00 45 1017.0
20260502151358 25 186 3.2 29.0 0.00 0.00 0.00 47 1017.0
20260502150848 25 236 6.4 29.0 0.00 0.00 0.00 45 1017.1
20260502150357 25 232 1.6 29.0 0.00 0.00 0.00 46 1017.1
20260502130357 25 159 8.0 29.0 0.00 0.00 0.00 42 1018.5
20260502123358 25 250 3.2 25.7 0.00 0.00 0.00 39 1018.9
20260502122858 25 196 4.8 25.7 0.00 0.00 0.00 39 1019.0
20260502122347 24 242 6.4 25.7 0.00 0.00 0.00 39 1019.0
20260502121858 24 158 9.7 25.7 0.00 0.00 0.00 41 1019.1
20260502121358 24 103 1.6 25.7 0.00 0.00 0.00 40 1019.0
20260502120848 24 119 19.3 25.7 0.00 0.00 0.00 38 1019.2
20260502120357 25 150 3.2 22.5 0.00 0.00 0.00 40 1019.3
20260502115348 24 141 6.4 22.5 0.00 0.00 0.00 42 1019.5
20260502114357 24 150 9.7 20.9 0.00 0.00 0.00 40 1019.6
20260502113846 24 208 6.4 20.9 0.00 0.00 0.00 41 1019.6
20260502113357 24 173 4.8 20.9 0.00 0.00 0.00 41 1019.7
20260502112857 24 295 3.2 20.9 0.00 0.00 0.00 40 1019.8
20260502112346 23 118 11.3 20.9 0.00 0.00 0.00 40 1019.9
20260502111356 24 181 9.7 20.9 0.00 0.00 0.00 40 1020.0
20260502110847 24 188 1.6 20.9 0.00 0.00 0.00 40 1019.9
20260502105347 23 223 4.8 20.9 0.00 0.00 0.00 40 1019.9
20260502104900 23 225 6.4 20.9 0.00 0.00 0.00 42 1020.0
20260502104358 23 137 8.0 20.9 0.00 0.00 0.00 40 1020.0
20260502103847 23 247 0.0 20.9 0.00 0.00 0.00 41 1020.2
20260502103357 23 234 9.7 20.9 0.00 0.00 0.00 42 1020.3
20260502102858 23 229 9.7 20.9 0.00 0.00 0.00 41 1020.4
20260502102347 23 241 6.4 20.9 0.00 0.00 0.00 43 1020.5
20260502100847 22 171 3.2 17.7 0.00 0.00 0.00 43 1020.6
20260502100357 22 137 8.0 17.7 0.00 0.00 0.00 42 1020.6
20260502090848 21 153 0.0 14.5 0.00 0.00 0.00 41 1021.3
20260502090356 21 218 3.2 14.5 0.00 0.00 0.00 43 1021.5